FW7338 Weather Reports


Display with metric or nautical units.
time (UTC)temp
F
wind
direction
speed
MPH
gust
MPH
rain 1hr
in
rain 24hr
in
rain mn
in
humidity
%
barometer
mb
20260507134556 37 313 4.0 8.0 0.00 0.00 0.00 63 1011.1
20260507133107 36 307 4.0 8.0 0.00 0.00 0.00 65 1011.2
20260507131557 34 300 4.0 5.0 0.00 0.00 0.00 69 1011.0
20260507130110 32 300 1.0 3.0 0.00 0.00 0.00 77 1011.1
20260507124634 30 300 2.0 3.0 0.00 0.00 0.00 81 1011.1
20260507123057 28 306 2.0 5.0 0.00 0.00 0.00 83 1010.9
20260507121600 26 0 0.0 1.0 0.00 0.00 0.00 85 1010.8
20260507120057 23 0 0.0 3.0 0.00 0.00 0.00 85 1010.7
20260507114613 22 304 1.0 4.0 0.00 0.00 0.00 85 1010.4
20260507113058 21 304 2.0 4.0 0.00 0.00 0.00 84 1010.6
20260507111558 20 304 1.0 2.0 0.00 0.00 0.00 84 1010.6
20260507110059 20 304 1.0 2.0 0.00 0.00 0.00 84 1010.7
20260507104600 19 304 1.0 3.0 0.00 0.00 0.00 85 1011.0
20260507103058 19 304 1.0 3.0 0.00 0.00 0.00 85 1011.0
20260507101559 20 304 2.0 3.0 0.00 0.00 0.00 84 1011.0
20260507100057 19 304 2.0 4.0 0.00 0.00 0.00 83 1011.2
20260507094555 19 304 1.0 3.0 0.00 0.00 0.00 84 1011.1
20260507093056 20 304 2.0 3.0 0.00 0.00 0.00 83 1011.0
20260507091559 21 304 1.0 2.0 0.00 0.00 0.00 84 1011.1
20260507090105 20 0 0.0 2.0 0.00 0.00 0.00 85 1011.1
20260507084556 19 0 0.0 3.0 0.00 0.00 0.00 83 1011.0
20260507083058 19 310 2.0 5.0 0.00 0.00 0.00 82 1010.8
20260507081556 20 310 2.0 4.0 0.00 0.00 0.00 81 1010.8
20260507080103 21 310 1.0 2.0 0.00 0.00 0.00 81 1010.7
20260507074610 21 310 1.0 2.0 0.00 0.00 0.00 81 1010.8
20260507073055 22 310 0.0 1.0 0.00 0.00 0.00 80 1010.8
20260507071556 22 310 1.0 3.0 0.00 0.00 0.00 80 1010.7
20260507070107 21 310 2.0 5.0 0.00 0.00 0.00 79 1011.0
20260507064604 21 310 2.0 4.0 0.00 0.00 0.00 78 1011.0
20260507063101 22 310 3.0 5.0 0.00 0.00 0.00 77 1011.1
20260507061555 22 310 2.0 4.0 0.00 0.00 0.00 76 1011.2
20260507060057 23 310 2.0 4.0 0.00 0.00 0.00 75 1011.3
20260507054557 23 310 2.0 3.0 0.00 0.00 0.00 74 1011.3
20260507053058 24 310 2.0 4.0 0.00 0.00 0.00 72 1011.4
20260507051600 25 310 2.0 4.0 0.00 0.00 0.00 69 1011.4
20260507050058 28 310 1.0 3.0 0.00 0.00 0.00 69 1011.3
20260507044555 30 310 3.0 4.0 0.00 0.00 0.00 62 1011.4
20260507043057 32 310 1.0 3.0 0.00 0.00 0.00 61 1011.3
20260507041559 33 310 1.0 3.0 0.00 0.00 0.00 60 1011.3
20260507040110 35 310 3.0 4.0 0.00 0.00 0.00 57 1011.4
20260507034554 35 310 3.0 5.0 0.00 0.00 0.00 59 1011.4
20260507033103 34 310 2.0 5.0 0.00 0.00 0.00 59 1011.5
20260507031609 35 0 0.0 1.0 0.00 0.00 0.00 62 1011.5
20260507030057 35 0 0.0 0.0 0.00 0.00 0.00 59 1011.7
20260507024556 36 0 0.0 2.0 0.00 0.00 0.00 58 1011.8
20260507023054 37 306 2.0 7.0 0.00 0.00 0.00 55 1011.9
20260507021556 39 306 3.0 4.0 0.00 0.00 0.00 51 1011.6
20260507020058 41 306 3.0 4.0 0.00 0.00 0.00 49 1011.7
20260507014557 43 306 3.0 7.0 0.00 0.00 0.00 44 1011.8
20260507013110 46 306 7.0 11.0 0.00 0.00 0.00 40 1011.9
20260507011558 47 302 11.0 16.0 0.00 0.00 0.00 39 1011.7
20260507010104 47 349 5.0 12.0 0.00 0.00 0.00 38 1011.9
20260507004559 48 315 10.0 15.0 0.00 0.00 0.00 37 1011.9
20260507003059 46 308 10.0 17.0 0.00 0.00 0.00 39 1012.2
20260507001600 48 286 12.0 15.0 0.00 0.00 0.00 36 1012.1
20260507000057 49 316 8.0 15.0 0.00 0.00 0.00 35 1012.2
20260506234555 48 360 7.0 13.0 0.00 0.00 0.00 37 1012.3
20260506233108 47 321 12.0 15.0 0.00 0.00 0.00 37 1012.5
20260506231619 48 290 10.0 15.0 0.00 0.00 0.00 37 1012.6
20260506230105 48 325 13.0 19.0 0.00 0.00 0.00 36 1012.5
20260506224559 48 304 8.0 16.0 0.00 0.00 0.00 37 1012.7
20260506223059 48 313 9.0 19.0 0.00 0.00 0.00 35 1012.7
20260506221604 48 296 9.0 18.0 0.00 0.00 0.00 36 1012.8
20260506220100 48 278 10.0 17.0 0.00 0.00 0.00 36 1013.0
20260506214602 48 284 11.0 19.0 0.00 0.00 0.00 36 1013.0
20260506213056 48 289 12.0 21.0 0.00 0.00 0.00 37 1013.1
20260506211609 46 360 7.0 15.0 0.00 0.00 0.00 37 1013.4
20260506210058 47 330 12.0 17.0 0.00 0.00 0.00 36 1013.6
20260506204559 48 317 11.0 17.0 0.00 0.00 0.00 36 1013.7
20260506203055 47 290 11.0 19.0 0.00 0.00 0.00 37 1014.1
20260506201558 46 304 11.0 18.0 0.00 0.00 0.00 36 1014.1
20260506200057 47 306 12.0 19.0 0.00 0.00 0.00 39 1014.2
20260506194556 48 344 12.0 20.0 0.00 0.00 0.00 36 1014.4
20260506193058 47 278 12.0 21.0 0.00 0.00 0.00 38 1014.6
20260506191555 46 319 10.0 18.0 0.00 0.00 0.00 41 1014.7
20260506190059 45 338 7.0 14.0 0.00 0.00 0.00 40 1014.9
20260506184610 45 306 11.0 20.0 0.00 0.00 0.00 41 1015.0
20260506183056 44 5 7.0 20.0 0.00 0.00 0.00 41 1015.2
20260506181556 44 340 10.0 17.0 0.00 0.00 0.00 43 1015.3
20260506180058 44 313 13.0 20.0 0.00 0.00 0.00 44 1015.6
20260506174600 44 13 13.0 23.0 0.00 0.00 0.00 43 1015.7
20260506173112 42 251 13.0 21.0 0.00 0.00 0.00 47 1015.8
20260506171610 42 326 14.0 21.0 0.00 0.00 0.00 47 1016.1
20260506170105 43 334 11.0 19.0 0.00 0.00 0.00 46 1016.2
20260506164618 42 310 15.0 20.0 0.00 0.00 0.00 47 1016.4
20260506163106 42 332 14.0 22.0 0.00 0.00 0.00 49 1016.5
20260506161559 41 336 10.0 21.0 0.00 0.00 0.00 49 1016.6
20260506160112 40 309 13.0 21.0 0.00 0.00 0.00 51 1016.6
20260506154558 40 313 16.0 24.0 0.00 0.00 0.00 54 1016.6
20260506153102 41 313 12.0 18.0 0.00 0.00 0.00 52 1016.8
20260506151558 40 331 13.0 22.0 0.00 0.00 0.00 52 1016.9
20260506150058 39 317 14.0 22.0 0.00 0.00 0.00 53 1017.0
20260506144557 39 327 12.0 20.0 0.00 0.00 0.00 58 1017.1
20260506143059 38 309 10.0 15.0 0.00 0.00 0.00 63 1017.0
20260506141610 37 300 8.0 12.0 0.00 0.00 0.00 66 1017.0
20260506140058 36 304 9.0 14.0 0.00 0.00 0.00 68 1017.0